Salina, KS

1:52 PM CDT on September 18, 2019 (GMT -0500)
Salina Municipal

Weather History for KSLN - August, 2019

Change the Weather History Date:

Sunday, August 25, 2019

  Actual Average Record
Temperature  
Mean Temperature 72 °F 78 °F  
Max Temperature 81 °F 90 °F 113 °F (1936)
Min Temperature 63 °F 67 °F 50 °F (1958)
Degree Days  
Heating Degree Days 0 0  
Month to date heating degree days 0 0  
Since 1 June heating degree days 1 7  
Since 1 July heating degree days 0 0  
Cooling Degree Days 7 13  
Month to date cooling degree days 347 379  
Year to date cooling degree days 1220 1333  
Since 1 June cooling degree days 1132 1205  
Growing Degree Days 22 (Base 50)    
Moisture  
Dew Point 64 °F    
Average Humidity 80    
Maximum Humidity 93    
Minimum Humidity 67    
Precipitation  
Precipitation 1.29 in 0.13 in 4.04 in (1920)
Month to date precipitation 7.74 3.24  
Year to date precipitation 29.85 23.63  
Sea Level Pressure  
Sea Level Pressure 29.85 in    
Wind  
Wind Speed 6 mph (ESE)    
Max Wind Speed 28 mph    
Max Gust Speed 38 mph    
Visibility 8 miles    
Events Fog , Rain , Thunderstorm    
T = Trace of Precipitation, MM = Missing Value Source: NWS Daily Summary

Daily Weather History Graph

Daily Weather History Graph

Search for Another Location

Airport or City:

Astronomy

Aug. 25, 2019 Rise Set
Actual Time 6:53 AM CDT 8:11 PM CDT
Civil Twilight 6:25 AM CDT 8:39 PM CDT
Nautical Twilight 5:52 AM CDT 9:12 PM CDT
Astronomical Twilight 5:17 AM CDT 9:46 PM CDT
Moon 1:30 AM CDT (8/25) 4:31 PM CDT (8/25)
Length of Visible Light 14h 13m
Length of Day
13h 18m
Waning Crescent, 29% of the Moon is Illuminated
Aug 25
Waning Crescent
Aug 30
New
Sep 5
First Quarter
Sep 13
Full
Sep 21
Last Quarter

Hourly Weather History & Observations

Time (CDT) Temp. Heat Index Dew Point Humidity Pressure Visibility Wind Dir Wind Speed Gust Speed Precip Events Conditions
12:28 AM 68.0 °F - 66.0 °F 93% 29.89 in 10.0 mi ESE 18.4 mph 31.1 mph 0.01 in Thunderstorm Overcast
12:53 AM 68.0 °F - 66.0 °F 93% 29.83 in 10.0 mi ESE 24.2 mph 34.5 mph 0.01 in Thunderstorm Overcast
1:24 AM 66.9 °F - 64.0 °F 90% 29.94 in 9.0 mi WSW 24.2 mph 38.0 mph N/A Thunderstorm Thunderstorm
1:28 AM 64.0 °F - 61.0 °F 90% 29.94 in 1.5 mi WSW 20.7 mph 36.8 mph 0.18 in Rain , Thunderstorm Heavy Thunderstorms and Rain
1:35 AM 63.0 °F - 61.0 °F 93% 29.95 in 0.5 mi SW 17.3 mph 29.9 mph 0.56 in Fog , Rain , Thunderstorm Heavy Thunderstorms and Rain
1:46 AM 63.0 °F - 62.1 °F 97% 29.93 in 1.0 mi South 9.2 mph - 0.81 in Rain , Thunderstorm Heavy Thunderstorms and Rain
1:53 AM 63.0 °F - 61.0 °F 93% 29.90 in 2.5 mi South 9.2 mph - 0.85 in Rain , Thunderstorm Heavy Thunderstorms and Rain
2:00 AM 63.0 °F - 61.0 °F 93% 29.91 in 4.0 mi South 11.5 mph - 0.03 in Rain , Thunderstorm Heavy Thunderstorms and Rain
2:23 AM 64.0 °F - 61.0 °F 90% 29.88 in 5.0 mi SW 13.8 mph - 0.08 in Rain , Thunderstorm Rain
2:53 AM 64.0 °F - 61.0 °F 90% 29.85 in 6.0 mi SW 12.7 mph - 0.17 in Rain , Thunderstorm Thunderstorms and Rain
3:07 AM 64.0 °F - 61.0 °F 90% 29.90 in 5.0 mi SSE 11.5 mph - 0.05 in Rain , Thunderstorm Heavy Rain
3:13 AM 64.0 °F - 61.0 °F 90% 29.89 in 5.0 mi SE 11.5 mph - 0.08 in Rain , Thunderstorm Thunderstorms and Rain
3:26 AM 64.0 °F - 62.1 °F 93% 29.88 in 5.0 mi SSE 12.7 mph - 0.14 in Rain , Thunderstorm Heavy Thunderstorms and Rain
3:34 AM 64.0 °F - 62.1 °F 93% 29.87 in 5.0 mi SSE 11.5 mph - 0.17 in Rain , Thunderstorm Heavy Rain
3:53 AM 64.0 °F - 61.0 °F 90% 29.83 in 6.0 mi South 10.4 mph - 0.25 in Rain Rain
4:29 AM 64.0 °F - 62.1 °F 93% 29.83 in 10.0 mi WSW 6.9 mph - 0.01 in   Overcast
4:53 AM 64.9 °F - 63.0 °F 93% 29.81 in 10.0 mi NW 5.8 mph - 0.01 in   Overcast
5:25 AM 64.0 °F - 62.1 °F 93% 29.85 in 10.0 mi NNE 10.4 mph - 0.00 in Rain Light Rain
5:53 AM 64.0 °F - 62.1 °F 93% 29.81 in 10.0 mi NNE 9.2 mph - 0.01 in Rain Light Rain
6:13 AM 64.0 °F - 62.1 °F 93% 29.84 in 10.0 mi NE 8.1 mph - 0.00 in   Mostly Cloudy
6:23 AM 64.0 °F - 62.1 °F 93% 29.85 in 10.0 mi ENE 9.2 mph - 0.00 in   Mostly Cloudy
6:53 AM 64.0 °F - 62.1 °F 93% 29.85 in 10.0 mi SE 8.1 mph - 0.00 in   Overcast
7:53 AM 64.9 °F - 63.0 °F 93% 29.84 in 10.0 mi North 3.5 mph - N/A   Overcast
8:17 AM 64.9 °F - 63.0 °F 93% 29.87 in 10.0 mi North 5.8 mph - N/A   Overcast
8:51 AM 66.2 °F - 64.4 °F 94% 29.89 in 10.0 mi NNW 4.6 mph - N/A   Mostly Cloudy
8:53 AM 66.0 °F - 64.0 °F 93% 29.86 in 10.0 mi North 5.8 mph - N/A   Mostly Cloudy
9:04 AM 66.0 °F - 64.0 °F 93% 29.88 in 10.0 mi NE 4.6 mph - N/A   Mostly Cloudy
9:53 AM 66.9 °F - 63.0 °F 87% 29.85 in 10.0 mi SSE 5.8 mph - N/A   Overcast
10:53 AM 68.0 °F - 63.0 °F 84% 29.86 in 10.0 mi Calm Calm - N/A   Overcast
11:53 AM 69.1 °F - 64.0 °F 84% 29.88 in 10.0 mi Calm Calm - N/A   Overcast
12:53 PM 71.1 °F - 64.9 °F 81% 29.86 in 10.0 mi Variable 3.5 mph - N/A   Overcast
1:02 PM 72.0 °F - 64.9 °F 78% 29.88 in 10.0 mi Calm Calm - N/A   Overcast
1:53 PM 73.9 °F - 66.0 °F 76% 29.83 in 10.0 mi NNE 4.6 mph - N/A   Overcast
2:16 PM 75.9 °F - 66.9 °F 74% 29.85 in 10.0 mi NNE 5.8 mph - N/A   Scattered Clouds
2:53 PM 77.0 °F - 66.9 °F 71% 29.80 in 10.0 mi NNE 4.6 mph - N/A   Partly Cloudy
3:53 PM 79.0 °F - 68.0 °F 69% 29.78 in 10.0 mi Calm Calm - N/A   Clear
4:53 PM 80.1 °F 82.7 °F 68.0 °F 67% 29.76 in 10.0 mi ESE 3.5 mph - N/A   Clear
5:53 PM 80.1 °F 82.7 °F 68.0 °F 67% 29.76 in 10.0 mi East 8.1 mph - N/A   Scattered Clouds
6:53 PM 78.1 °F - 68.0 °F 71% 29.76 in 10.0 mi ENE 9.2 mph - N/A   Mostly Cloudy
7:53 PM 75.9 °F - 68.0 °F 76% 29.76 in 10.0 mi East 6.9 mph - N/A   Scattered Clouds
8:53 PM 75.0 °F - 66.9 °F 76% 29.77 in 10.0 mi East 8.1 mph - N/A   Mostly Cloudy
9:17 PM 73.9 °F - 66.9 °F 79% 29.80 in 10.0 mi East 9.2 mph - N/A   Overcast
9:53 PM 73.9 °F - 66.9 °F 79% 29.78 in 10.0 mi ESE 8.1 mph - N/A   Overcast
10:39 PM 73.0 °F - 66.9 °F 81% 29.80 in 10.0 mi ESE 11.5 mph - N/A   Scattered Clouds
10:53 PM 73.0 °F - 66.9 °F 81% 29.78 in 10.0 mi ESE 11.5 mph - N/A   Clear
11:53 PM 71.1 °F - 66.9 °F 87% 29.78 in 10.0 mi ESE 5.8 mph - N/A   Clear